Home   Weather   Saipan   Past weeks

Flag for Northern Mariana Islands Past Weather in Saipan, Northern Mariana Islands — Yesterday and Last 2 Weeks

Now
88 °F

Mostly cloudy.


Feels Like: 99 °F
Forecast: 79 / 87 °F
Wind: No wind

Location: Saipan International Airport

Current Time: Aug 21, 2017 at 6:44:01 pm

Latest Report: Aug 21, 2017 at 5:54 pm


Visibility: 10 mi

Pressure: 29.86 "Hg

Humidity: 67%

Dew Point: 76 °F

Location of SaipanLocation

Past Weather in Saipan — Graph

°F

Saipan Temperature Yesterday

Maximum temperature yesterday: 91 °F (at 10:54 am)
Minimum temperature yesterday: 81 °F (at 12:54 am)
Average temperature yesterday: 86 °F

High & Low Weather Summary for the Past Weeks

 TemperatureHumidityPressure
High94 °F (Aug 13, 11:54 am)89% (Aug 18, 3:24 am)30.00 "Hg (Aug 18, 3:24 am)
Low77 °F (Aug 21, 3:05 am)52% (Aug 13, 11:54 am)29.78 "Hg (Aug 18, 2:18 am)
Average87 °F73%29.89 "Hg
* Reported Aug 6 4:54 pm — Aug 21 4:54 pm, Saipan. Weather by CustomWeather, © 2017

Note: Actual official high and low records may vary slightly from our data, if they occured in-between our weather recording intervals... More about our weather records

Advertising

Saipan Weather History for the Previous 24 Hours

Scroll right to see more
 ConditionsComfort  
Time TempWeatherWind HumidityBarometerVisibility
4:54 pm
Mon, Aug 21
90 °FPartly sunny.6 mph63%29.84 "Hg10 mi
3:54 pm90 °FPassing clouds.8 mph63%29.83 "Hg10 mi
2:54 pm90 °FScattered clouds.9 mph66%29.84 "Hg10 mi
1:54 pm91 °FScattered clouds.13 mph64%29.85 "Hg10 mi
12:54 pm90 °FScattered clouds.10 mph66%29.86 "Hg10 mi
11:54 am91 °FScattered clouds.12 mph64%29.87 "Hg10 mi
10:54 am90 °FScattered clouds.13 mph66%29.87 "Hg10 mi
9:54 am89 °FScattered clouds.9 mph65%29.88 "Hg10 mi
8:54 am86 °FBroken clouds.6 mph75%29.91 "Hg10 mi
7:54 am84 °FScattered clouds.5 mph80%29.89 "Hg10 mi
6:54 am82 °FScattered clouds.5 mph82%29.87 "Hg10 mi
6:31 am81 °FLight rain. Partly sunny.3 mph85%29.82 "Hg10 mi
5:54 am80 °FMostly cloudy.3 mph85%29.87 "Hg10 mi
4:54 am80 °FLight rain. Partly cloudy.3 mph87%29.85 "Hg10 mi
3:54 am78 °FLight rain. Partly cloudy.No wind87%29.84 "Hg5 mi
3:16 am78 °FLight rain. Clear.5 mph87%29.78 "Hg5 mi
3:05 am77 °FThunderstorms. Passing clouds.8 mph88%29.78 "Hg3 mi
2:54 am78 °FThunderstorms. Partly cloudy.17 mph84%29.85 "Hg2 mi
2:44 am81 °FThunderstorms. Partly cloudy.14 mph79%29.78 "Hg9 mi
1:54 am82 °FLight rain. Passing clouds.6 mph82%29.85 "Hg10 mi
12:54 am80 °FPartly cloudy.5 mph79%29.86 "Hg10 mi
12:23 am80 °FHeavy rain. Partly cloudy.9 mph76%29.82 "Hg3 mi
11:54 pm
Sun, Aug 20
83 °FPartly cloudy.8 mph77%29.89 "Hg10 mi
10:54 pm83 °FPassing clouds.3 mph77%29.90 "Hg10 mi
9:54 pm83 °FPassing clouds.No wind77%29.91 "Hg10 mi
8:54 pm84 °FPassing clouds.6 mph77%29.90 "Hg10 mi
7:54 pm83 °FPartly cloudy.No wind79%29.89 "Hg10 mi
6:54 pm84 °FPartly cloudy.3 mph74%29.88 "Hg10 mi
Weather by CustomWeather, © 2017

See weather overviewHow to use our weather pages